• In Uzbekistan
  • List of Countries
  • For 7 days
  • Water Temperature
  • Satellite Maps
  • Weather Map
  • Weather Widgets
  • user-avatar
    Login

    Hourly Weather Serowe

    Today, 16 December, Saturday

    Time Temperature Precipitation Wind Pressure Humidity
    00:00 +20°C° 0 mm 6 mps 669 mmHg 72%
    01:00 +20°C° 0 mm 6 mps 669 mmHg 73%
    02:00 +19°C° 0 mm 6 mps 668 mmHg 74%
    03:00 +19°C° 0 mm 6 mps 668 mmHg 76%
    04:00 +17°C° 0 mm 6 mps 668 mmHg 77%
    05:00 +17°C° 0 mm 6 mps 668 mmHg 79%
    06:00 +19°C° 0 mm 6 mps 669 mmHg 74%
    07:00 +20°C° 0 mm 6 mps 669 mmHg 70%
    08:00 +21°C° 0 mm 6 mps 670 mmHg 65%
    09:00 +23°C° 0 mm 6 mps 670 mmHg 56%
    10:00 +27°C° 0 mm 5 mps 670 mmHg 47%
    11:00 +29°C° 0 mm 5 mps 670 mmHg 38%
    12:00 +32°C° 0 mm 5 mps 670 mmHg 33%
    13:00 +33°C° 0 mm 4 mps 669 mmHg 27%
    14:00 +34°C° 0 mm 4 mps 669 mmHg 22%
    15:00 +34°C° 0 mm 4 mps 669 mmHg 22%
    16:00 +34°C° 0 mm 4 mps 668 mmHg 21%
    17:00 +34°C° 0 mm 3 mps 668 mmHg 20%
    18:00 +31°C° 0 mm 3 mps 667 mmHg 23%
    19:00 +29°C° 0 mm 3 mps 667 mmHg 27%
    20:00 +28°C° 0 mm 3 mps 667 mmHg 30%
    21:00 +27°C° 0 mm 3 mps 668 mmHg 32%
    22:00 +26°C° 0 mm 4 mps 668 mmHg 35%
    23:00 +25°C° 0 mm 4 mps 668 mmHg 37%

    Tomorrow, 17 December, Sunday

    Time Temperature Precipitation Wind Pressure Humidity
    00:00 +25°C° 0 mm 4 mps 668 mmHg 39%
    01:00 +23°C° 0 mm 4 mps 667 mmHg 41%
    02:00 +23°C° 0 mm 4 mps 667 mmHg 43%
    03:00 +22°C° 0 mm 3 mps 667 mmHg 46%
    04:00 +21°C° 0 mm 3 mps 667 mmHg 48%
    05:00 +21°C° 0 mm 2 mps 667 mmHg 51%
    06:00 +22°C° 0 mm 3 mps 667 mmHg 47%
    07:00 +25°C° 0 mm 3 mps 668 mmHg 42%
    08:00 +27°C° 0 mm 4 mps 668 mmHg 37%
    09:00 +29°C° 0 mm 4 mps 669 mmHg 32%
    10:00 +31°C° 0 mm 3 mps 669 mmHg 26%
    11:00 +34°C° 0 mm 3 mps 669 mmHg 20%
    12:00 +35°C° 0 mm 3 mps 668 mmHg 18%
    13:00 +36°C° 0 mm 3 mps 668 mmHg 16%
    14:00 +37°C° 0 mm 3 mps 667 mmHg 14%
    15:00 +37°C° 0 mm 4 mps 667 mmHg 14%
    16:00 +37°C° 0 mm 4 mps 666 mmHg 14%
    17:00 +37°C° 0 mm 4 mps 666 mmHg 13%
    18:00 +35°C° 0 mm 4 mps 665 mmHg 16%
    19:00 +33°C° 0 mm 3 mps 665 mmHg 19%
    20:00 +30°C° 0 mm 3 mps 665 mmHg 22%
    21:00 +29°C° 0 mm 3 mps 666 mmHg 23%
    22:00 +29°C° 0 mm 3 mps 666 mmHg 24%
    23:00 +28°C° 0 mm 3 mps 666 mmHg 25%

    Day after tomorrow, 18 December, Monday

    Time Temperature Precipitation Wind Pressure Humidity
    00:00 +27°C° 0 mm 3 mps 666 mmHg 27%
    01:00 +26°C° 0 mm 4 mps 665 mmHg 29%
    02:00 +26°C° 0 mm 4 mps 665 mmHg 31%
    03:00 +25°C° 0 mm 4 mps 665 mmHg 33%
    04:00 +24°C° 0 mm 3 mps 665 mmHg 36%
    05:00 +24°C° 0 mm 3 mps 665 mmHg 38%
    06:00 +26°C° 0 mm 4 mps 666 mmHg 35%
    07:00 +27°C° 0 mm 5 mps 667 mmHg 32%
    08:00 +29°C° 0 mm 6 mps 667 mmHg 28%
    09:00 +32°C° 0 mm 5 mps 667 mmHg 24%
    10:00 +35°C° 0 mm 5 mps 667 mmHg 19%
    11:00 +37°C° 0 mm 5 mps 668 mmHg 15%
    12:00 +37°C° 0 mm 5 mps 667 mmHg 14%
    13:00 +38°C° 0 mm 4 mps 666 mmHg 13%
    14:00 +40°C° 0 mm 4 mps 665 mmHg 12%
    15:00 +38°C° 0 mm 3 mps 665 mmHg 12%
    16:00 +38°C° 0 mm 3 mps 664 mmHg 12%
    17:00 +38°C° 0 mm 3 mps 664 mmHg 12%
    18:00 +36°C° 0 mm 4 mps 664 mmHg 14%
    19:00 +34°C° 0 mm 4 mps 664 mmHg 17%
    20:00 +32°C° 0 mm 4 mps 664 mmHg 19%
    21:00 +30°C° 0 mm 4 mps 664 mmHg 21%
    22:00 +30°C° 0 mm 4 mps 664 mmHg 23%
    23:00 +29°C° 0 mm 4 mps 664 mmHg 26%

    19 December, Tuesday

    Time Temperature Precipitation Wind Pressure Humidity
    00:00 +28°C° 0 mm 5 mps 664 mmHg 29%
    01:00 +28°C° 0 mm 6 mps 664 mmHg 32%
    02:00 +27°C° 0 mm 6 mps 663 mmHg 35%
    03:00 +27°C° 0 mm 6 mps 663 mmHg 35%
    04:00 +26°C° 0 mm 5 mps 663 mmHg 35%
    05:00 +26°C° 0 mm 4 mps 663 mmHg 35%
    06:00 +27°C° 0 mm 5 mps 664 mmHg 33%
    07:00 +29°C° 0 mm 5 mps 665 mmHg 31%
    08:00 +30°C° 0 mm 6 mps 665 mmHg 29%
    09:00 +33°C° 0 mm 5 mps 665 mmHg 26%
    10:00 +35°C° 0 mm 5 mps 665 mmHg 23%
    11:00 +37°C° 0 mm 4 mps 666 mmHg 20%
    12:00 +38°C° 0 mm 4 mps 665 mmHg 19%
    13:00 +38°C° 0 mm 3 mps 664 mmHg 17%
    14:00 +39°C° 0 mm 3 mps 664 mmHg 15%
    15:00 +39°C° 0 mm 2 mps 664 mmHg 16%
    16:00 +38°C° 0 mm 2 mps 663 mmHg 17%
    17:00 +36°C° 0 mm 1 mps 663 mmHg 18%
    18:00 +35°C° 0 mm 1 mps 663 mmHg 20%
    19:00 +35°C° 0 mm 2 mps 664 mmHg 23%
    20:00 +34°C° 0 mm 2 mps 664 mmHg 25%
    21:00 +32°C° 0 mm 2 mps 664 mmHg 27%
    22:00 +31°C° 0 mm 2 mps 664 mmHg 29%
    23:00 +31°C° 0 mm 2 mps 665 mmHg 31%

    20 December, Wednesday

    Time Temperature Precipitation Wind Pressure Humidity
    00:00 +30°C° 0 mm 2 mps 664 mmHg 32%
    01:00 +30°C° 0 mm 2 mps 664 mmHg 34%
    02:00 +29°C° 0 mm 2 mps 664 mmHg 36%
    03:00 +29°C° 0 mm 2 mps 664 mmHg 39%
    04:00 +28°C° 0 mm 3 mps 664 mmHg 42%
    05:00 +27°C° 0 mm 4 mps 664 mmHg 45%
    06:00 +28°C° 0 mm 4 mps 665 mmHg 45%
    07:00 +29°C° 0 mm 5 mps 666 mmHg 45%
    08:00 +29°C° 0 mm 6 mps 666 mmHg 45%
    09:00 +32°C° 0 mm 6 mps 667 mmHg 40%
    10:00 +34°C° 0 mm 6 mps 667 mmHg 36%
    11:00 +36°C° 0 mm 5 mps 667 mmHg 31%
    12:00 +36°C° 0 mm 5 mps 666 mmHg 30%
    13:00 +37°C° 0 mm 5 mps 666 mmHg 29%
    14:00 +37°C° 0 mm 4 mps 665 mmHg 27%
    15:00 +36°C° 0.1 mm 4 mps 665 mmHg 29%
    16:00 +35°C° 0.1 mm 4 mps 665 mmHg 31%
    17:00 +35°C° 0.1 mm 4 mps 665 mmHg 33%
    18:00 +33°C° 0.2 mm 4 mps 665 mmHg 38%
    19:00 +32°C° 0.2 mm 5 mps 665 mmHg 43%
    20:00 +29°C° 0.2 mm 5 mps 665 mmHg 47%
    21:00 +28°C° 0.3 mm 5 mps 665 mmHg 52%
    22:00 +27°C° 0.3 mm 5 mps 666 mmHg 57%
    23:00 +26°C° 0.3 mm 5 mps 666 mmHg 62%

    21 December, Thursday

    Time Temperature Precipitation Wind Pressure Humidity
    00:00 +25°C° 0.2 mm 5 mps 666 mmHg 66%
    01:00 +23°C° 0.2 mm 6 mps 666 mmHg 70%
    02:00 +23°C° 0.2 mm 6 mps 666 mmHg 74%
    03:00 +23°C° 0.1 mm 6 mps 666 mmHg 73%
    04:00 +23°C° 0.1 mm 6 mps 666 mmHg 73%
    05:00 +23°C° 0.1 mm 6 mps 667 mmHg 73%
    06:00 +23°C° 0 mm 6 mps 667 mmHg 71%
    07:00 +24°C° 0 mm 7 mps 667 mmHg 68%
    08:00 +24°C° 0 mm 7 mps 668 mmHg 66%
    09:00 +26°C° 0 mm 7 mps 668 mmHg 61%
    10:00 +28°C° 0 mm 6 mps 668 mmHg 56%
    11:00 +29°C° 0 mm 6 mps 668 mmHg 50%
    12:00 +30°C° 0 mm 6 mps 667 mmHg 46%
    13:00 +32°C° 0 mm 5 mps 667 mmHg 41%
    14:00 +34°C° 0 mm 5 mps 666 mmHg 37%
    15:00 +33°C° 0 mm 5 mps 666 mmHg 38%
    16:00 +33°C° 0 mm 5 mps 665 mmHg 38%
    17:00 +32°C° 0 mm 5 mps 665 mmHg 39%
    18:00 +30°C° 0 mm 5 mps 665 mmHg 43%
    19:00 +29°C° 0 mm 4 mps 665 mmHg 47%
    20:00 +28°C° 0 mm 4 mps 665 mmHg 51%
    21:00 +27°C° 0 mm 5 mps 666 mmHg 55%
    22:00 +27°C° 0 mm 6 mps 666 mmHg 59%
    23:00 +26°C° 0 mm 6 mps 666 mmHg 63%
    Show more

    XHprof extension not loaded